When you browse on this site, cookies collect data to enhance your experience and personalize the content and advertising you see.
Visit our Privacy Policy to learn more. By continuing to use the site, you agree to this use of cookies and data.

Hourly Weather Mansa Konko

Today, 18 September, Friday

Time Temperature Precipitation Wind Pressure Humidity
00:00 +27°C° 0 mm 3 mps 757 mmHg 90%
01:00 +27°C° 0 mm 3 mps 757 mmHg 91%
02:00 +26°C° 0 mm 2 mps 757 mmHg 92%
03:00 +26°C° 0 mm 2 mps 757 mmHg 93%
04:00 +26°C° 0 mm 2 mps 757 mmHg 94%
05:00 +26°C° 0 mm 1 mps 757 mmHg 96%
06:00 +27°C° 0 mm 2 mps 757 mmHg 93%
07:00 +28°C° 0 mm 2 mps 758 mmHg 90%
08:00 +29°C° 0 mm 3 mps 758 mmHg 87%
09:00 +30°C° 0 mm 3 mps 758 mmHg 81%
10:00 +31°C° 0 mm 3 mps 758 mmHg 76%
11:00 +33°C° 0 mm 3 mps 758 mmHg 71%
12:00 +34°C° 0 mm 3 mps 758 mmHg 70%
13:00 +34°C° 0 mm 3 mps 757 mmHg 68%
14:00 +34°C° 0 mm 3 mps 756 mmHg 67%
15:00 +33°C° 0.4 mm 3 mps 756 mmHg 72%
16:00 +31°C° 0.4 mm 2 mps 756 mmHg 77%
17:00 +30°C° 0.4 mm 2 mps 756 mmHg 83%
18:00 +29°C° 0 mm 2 mps 757 mmHg 84%
19:00 +29°C° 0 mm 2 mps 758 mmHg 86%
20:00 +28°C° 0 mm 2 mps 758 mmHg 87%
21:00 +28°C° 0.5 mm 2 mps 758 mmHg 89%
22:00 +27°C° 0.5 mm 2 mps 759 mmHg 91%
23:00 +27°C° 0.5 mm 2 mps 759 mmHg 93%

Tomorrow, 19 September, Saturday

Time Temperature Precipitation Wind Pressure Humidity
00:00 +27°C° 4.5 mm 2 mps 759 mmHg 94%
01:00 +26°C° 4.5 mm 2 mps 758 mmHg 95%
02:00 +26°C° 4.5 mm 3 mps 758 mmHg 96%
03:00 +25°C° 2.4 mm 3 mps 758 mmHg 96%
04:00 +25°C° 2.4 mm 2 mps 758 mmHg 95%
05:00 +24°C° 2.4 mm 2 mps 758 mmHg 94%
06:00 +24°C° 2.2 mm 2 mps 759 mmHg 95%
07:00 +24°C° 2.2 mm 2 mps 759 mmHg 96%
08:00 +25°C° 2.2 mm 1 mps 760 mmHg 96%
09:00 +25°C° 1 mm 2 mps 760 mmHg 95%
10:00 +26°C° 1 mm 2 mps 760 mmHg 93%
11:00 +26°C° 1 mm 2 mps 760 mmHg 92%
12:00 +27°C° 0 mm 2 mps 759 mmHg 86%
13:00 +29°C° 0 mm 1 mps 758 mmHg 81%
14:00 +30°C° 0 mm 1 mps 758 mmHg 75%
15:00 +30°C° 0 mm 1 mps 758 mmHg 78%
16:00 +29°C° 0 mm 1 mps 758 mmHg 81%
17:00 +29°C° 0 mm 1 mps 757 mmHg 84%
18:00 +28°C° 0.1 mm 1 mps 758 mmHg 86%
19:00 +27°C° 0.1 mm 2 mps 758 mmHg 88%
20:00 +26°C° 0.1 mm 2 mps 759 mmHg 90%
21:00 +26°C° 0 mm 2 mps 759 mmHg 90%
22:00 +25°C° 0 mm 1 mps 760 mmHg 89%
23:00 +25°C° 0 mm 1 mps 760 mmHg 89%

Day after tomorrow, 20 September, Sunday

Time Temperature Precipitation Wind Pressure Humidity
00:00 +25°C° 0 mm 1 mps 760 mmHg 90%
01:00 +25°C° 0 mm 1 mps 759 mmHg 90%
02:00 +25°C° 0 mm 1 mps 759 mmHg 91%
03:00 +25°C° 0 mm 1 mps 759 mmHg 92%
04:00 +25°C° 0 mm 1 mps 759 mmHg 93%
05:00 +24°C° 0 mm 2 mps 759 mmHg 94%
06:00 +25°C° 0 mm 2 mps 759 mmHg 92%
07:00 +26°C° 0 mm 2 mps 760 mmHg 90%
08:00 +27°C° 0 mm 2 mps 760 mmHg 88%
09:00 +29°C° 0 mm 2 mps 760 mmHg 82%
10:00 +30°C° 0 mm 3 mps 760 mmHg 76%
11:00 +33°C° 0 mm 3 mps 760 mmHg 70%
12:00 +33°C° 0 mm 3 mps 759 mmHg 69%
13:00 +34°C° 0 mm 2 mps 758 mmHg 68%
14:00 +34°C° 0 mm 2 mps 758 mmHg 66%
15:00 +32°C° 1 mm 2 mps 758 mmHg 72%
16:00 +32°C° 1 mm 1 mps 758 mmHg 77%
17:00 +31°C° 1 mm 1 mps 758 mmHg 82%
18:00 +30°C° 1.4 mm 2 mps 758 mmHg 85%
19:00 +28°C° 1.4 mm 3 mps 759 mmHg 88%
20:00 +27°C° 1.4 mm 3 mps 760 mmHg 92%
21:00 +27°C° 0 mm 3 mps 760 mmHg 94%
22:00 +26°C° 0 mm 2 mps 760 mmHg 95%
23:00 +26°C° 0 mm 1 mps 760 mmHg 97%

21 September, Monday

Time Temperature Precipitation Wind Pressure Humidity
00:00 +26°C° 0 mm 1 mps 760 mmHg 97%
01:00 +25°C° 0 mm 1 mps 759 mmHg 97%
02:00 +25°C° 0 mm 1 mps 759 mmHg 97%
03:00 +25°C° 0 mm 1 mps 759 mmHg 96%
04:00 +23°C° 0 mm 0 mps 759 mmHg 96%
05:00 +23°C° 0 mm 0 mps 759 mmHg 96%
06:00 +24°C° 0 mm 0 mps 760 mmHg 93%
07:00 +25°C° 0 mm 0 mps 760 mmHg 90%
08:00 +25°C° 0 mm 0 mps 761 mmHg 88%
09:00 +26°C° 0.3 mm 0 mps 761 mmHg 86%
10:00 +29°C° 0.3 mm 1 mps 761 mmHg 83%
11:00 +29°C° 0.3 mm 1 mps 761 mmHg 81%
12:00 +29°C° 2.4 mm 1 mps 760 mmHg 83%
13:00 +28°C° 2.4 mm 2 mps 760 mmHg 84%
14:00 +28°C° 2.4 mm 3 mps 759 mmHg 86%
15:00 +28°C° 0.1 mm 3 mps 759 mmHg 86%
16:00 +28°C° 0.1 mm 2 mps 759 mmHg 86%
17:00 +27°C° 0.1 mm 2 mps 759 mmHg 86%
18:00 +27°C° 0 mm 2 mps 759 mmHg 88%
19:00 +26°C° 0 mm 1 mps 759 mmHg 89%
20:00 +26°C° 0 mm 1 mps 760 mmHg 90%
21:00 +26°C° 0 mm 1 mps 760 mmHg 91%
22:00 +25°C° 0 mm 1 mps 760 mmHg 91%
23:00 +25°C° 0 mm 1 mps 760 mmHg 92%

22 September, Tuesday

Time Temperature Precipitation Wind Pressure Humidity
00:00 +25°C° 0 mm 1 mps 760 mmHg 92%
01:00 +25°C° 0 mm 1 mps 759 mmHg 93%
02:00 +25°C° 0 mm 1 mps 759 mmHg 93%
03:00 +25°C° 0 mm 1 mps 759 mmHg 94%
04:00 +24°C° 0 mm 1 mps 759 mmHg 94%
05:00 +24°C° 0 mm 1 mps 759 mmHg 95%
06:00 +26°C° 0 mm 1 mps 759 mmHg 92%
07:00 +27°C° 0 mm 1 mps 760 mmHg 88%
08:00 +28°C° 0 mm 2 mps 760 mmHg 85%
09:00 +30°C° 0 mm 2 mps 760 mmHg 79%
10:00 +31°C° 0 mm 2 mps 760 mmHg 74%
11:00 +34°C° 0 mm 2 mps 760 mmHg 68%
12:00 +34°C° 0 mm 2 mps 759 mmHg 67%
13:00 +35°C° 0 mm 3 mps 758 mmHg 65%
14:00 +36°C° 0 mm 3 mps 757 mmHg 64%
15:00 +35°C° 0.2 mm 3 mps 757 mmHg 69%
16:00 +34°C° 0.2 mm 3 mps 757 mmHg 73%
17:00 +33°C° 0.2 mm 3 mps 757 mmHg 78%
18:00 +31°C° 0.2 mm 3 mps 758 mmHg 82%
19:00 +29°C° 0.2 mm 4 mps 758 mmHg 87%
20:00 +28°C° 0.2 mm 4 mps 759 mmHg 91%
21:00 +28°C° 0 mm 4 mps 759 mmHg 92%
22:00 +28°C° 0 mm 3 mps 759 mmHg 93%
23:00 +27°C° 0 mm 3 mps 759 mmHg 95%

23 September, Wednesday

Time Temperature Precipitation Wind Pressure Humidity
00:00 +27°C° 0 mm 3 mps 758 mmHg 95%
01:00 +27°C° 0 mm 3 mps 758 mmHg 96%
02:00 +27°C° 0 mm 3 mps 757 mmHg 97%
03:00 +27°C° 0 mm 3 mps 757 mmHg 97%
04:00 +26°C° 0 mm 2 mps 757 mmHg 98%
05:00 +26°C° 0 mm 2 mps 757 mmHg 98%
06:00 +27°C° 0 mm 3 mps 758 mmHg 94%
07:00 +28°C° 0 mm 3 mps 758 mmHg 91%
08:00 +29°C° 0 mm 3 mps 758 mmHg 87%
09:00 +30°C° 0 mm 3 mps 758 mmHg 81%
10:00 +33°C° 0 mm 3 mps 758 mmHg 74%
11:00 +34°C° 0 mm 3 mps 758 mmHg 67%
12:00 +34°C° 0 mm 3 mps 757 mmHg 66%
13:00 +35°C° 0 mm 3 mps 757 mmHg 65%
14:00 +35°C° 0 mm 4 mps 756 mmHg 63%
15:00 +34°C° 0 mm 3 mps 756 mmHg 68%
16:00 +34°C° 0 mm 3 mps 756 mmHg 73%
17:00 +33°C° 0 mm 3 mps 756 mmHg 78%
18:00 +30°C° 0 mm 3 mps 756 mmHg 82%
19:00 +29°C° 0 mm 4 mps 757 mmHg 85%
20:00 +28°C° 0 mm 4 mps 757 mmHg 88%
21:00 +27°C° 0 mm 4 mps 757 mmHg 89%
22:00 +27°C° 0 mm 4 mps 757 mmHg 91%
23:00 +27°C° 0 mm 3 mps 757 mmHg 92%
Show more